Flag for U.S.A. Weather past 2 weeks in Wailuku, Hawaii, U.S.A.

73 °F

Light rain. Mostly cloudy.

Feels Like: 73 °F
Forecast: 71 / 83 °F
Wind: 9 mph from East

Location: Kahului Airport

Current Time: Nov 29, 2015 at 9:12:08 PM

Latest Report: Nov 29, 2015 at 7:54 PM

Visibility: 5 mi

Pressure: 30.11 "Hg

Humidity: 81%

Dew point: 67 °F

Location of WailukuLocation

Historic Weather in Wailuku — Graph


Wailuku temperature yesterday

Maximum temperature yesterday: 83 °F (at 11:54 AM)
Minimum temperature yesterday: 73 °F (at 8:54 PM)
Average temperature yesterday: 77 °F

Past Weeks' High & Low Weather Summary

High88 °F (Nov 16, 12:54 PM)100% (Nov 20, 10:54 PM)30.10 "Hg (Nov 20, 10:54 PM)
Low63 °F (Nov 16, 6:54 AM)36% (Nov 16, 12:54 PM)29.79 "Hg (Nov 22, 1:54 PM)
Average77 °F76%29.95 "Hg
* Reported Nov 14 6:54 PM — Nov 29 6:54 PM, Wailuku, Weather by CustomWeather, © 2015

Note: Actual official high and low records may vary slightly from our data, if they occured in-between our weather recording intervals... More about our weather records


Wailuku weather history for previous 24 hours

Time TempWeatherWind HumidityBarometerVisibility
6:54 PM
Sun, Nov 29
74 °FPassing clouds.9 mph74%30.09 "Hg10 mi
5:54 PM76 °FPassing clouds.17 mph67%30.07 "Hg10 mi
4:54 PM78 °FScattered clouds.17 mph60%30.03 "Hg10 mi
3:54 PM80 °FPassing clouds.17 mph54%30.00 "Hg10 mi
2:54 PM82 °FScattered clouds.20 mph53%30.01 "Hg10 mi
1:54 PM83 °FScattered clouds.17 mph55%30.01 "Hg10 mi
12:54 PM83 °FScattered clouds.18 mph59%30.03 "Hg10 mi
11:54 AM83 °FScattered clouds.21 mph59%30.05 "Hg10 mi
10:54 AM82 °FScattered clouds.21 mph65%30.07 "Hg10 mi
9:54 AM80 °FPassing clouds.17 mph64%30.08 "Hg10 mi
8:54 AM78 °FPassing clouds.21 mph69%30.08 "Hg10 mi
7:54 AM76 °FPassing clouds.17 mph77%30.07 "Hg10 mi
6:54 AM74 °FScattered clouds.17 mph79%30.07 "Hg10 mi
5:54 AM73 °FClear.12 mph84%30.05 "Hg10 mi
4:54 AM73 °FClear.10 mph84%30.04 "Hg10 mi
3:54 AM73 °FPassing clouds.9 mph84%30.05 "Hg10 mi
2:54 AM72 °FMostly cloudy.8 mph87%30.06 "Hg10 mi
1:54 AM72 °FPartly cloudy.10 mph84%30.07 "Hg10 mi
12:54 AM74 °FPassing clouds.8 mph82%30.08 "Hg10 mi
12:19 AM73 °FMostly cloudy.9 mph78%30.06 "Hg10 mi
10:54 PM
Sat, Nov 28
74 °FMostly cloudy.13 mph82%30.08 "Hg10 mi
9:54 PM73 °FMostly cloudy.10 mph88%30.07 "Hg10 mi
Weather by CustomWeather, © 2015

See weather overviewHow to use our weather pages